Somerville, NJ

2:38 AM EDT on May 24, 2017 (GMT -0400)
Somerset

Weather History for KSMQ - September, 2013

Change the Weather History Date:

Monday, September 23, 2013

  Actual Average Record
Temperature  
Mean Temperature 55 °F -  
Max Temperature 66 °F 72 °F 92 °F (1970)
Min Temperature 44 °F 49 °F 35 °F (1947)
Degree Days  
Heating Degree Days 10    
Growing Degree Days 5 (Base 50)    
Moisture  
Dew Point 42 °F    
Average Humidity 62    
Maximum Humidity 93    
Minimum Humidity 42    
Precipitation  
Precipitation 0.00 in - - ()
Sea Level Pressure  
Sea Level Pressure 30.00 in    
Wind  
Wind Speed 6 mph (NNW)    
Max Wind Speed 14 mph    
Max Gust Speed 24 mph    
Visibility 10 miles    
Events      
Averages and records for this station are not official NWS values.
T = Trace of Precipitation, MM = Missing Value Source: NWS Daily Summary

Daily Weather History Graph

Daily Weather History Graph

Search for Another Location

Airport or City:

Trip Planner

Search our weather history database for the weather conditions in past years. The results will help you decide how hot, cold, wet, or windy it might be!

Date:

Astronomy

Sep. 23, 2013 Rise Set
Actual Time 6:47 AM EDT 6:53 PM EDT
Civil Twilight 6:20 AM EDT 7:21 PM EDT
Nautical Twilight 5:48 AM EDT 7:52 PM EDT
Astronomical Twilight 5:15 AM EDT 8:25 PM EDT
Moon 9:22 PM EDT (9/23) 11:05 AM EDT (9/23)
Length of Visible Light 13h 00m
Length of Day
12h 06m
Waning Gibbous, 81% of the Moon is Illuminated
Sep 23
Waning Gibbous
Sep 26
Last Quarter
Oct 4
New
Oct 11
First Quarter
Oct 18
Full

Hourly Weather History & Observations

Time (EDT) Temp. Dew Point Humidity Pressure Visibility Wind Dir Wind Speed Gust Speed Precip Events Conditions
12:53 AM 55.0 °F 39.0 °F 55% 29.94 in 10.0 mi North 13.8 mph 24.2 mph N/A   Overcast
1:53 AM 53.1 °F 39.9 °F 61% 29.95 in 10.0 mi North 4.6 mph - N/A   Mostly Cloudy
2:53 AM 48.9 °F 42.1 °F 77% 29.94 in 10.0 mi Calm Calm - N/A   Partly Cloudy
3:53 AM 51.1 °F 42.1 °F 71% 29.96 in 10.0 mi Calm Calm - N/A   Overcast
4:53 AM 46.9 °F 43.0 °F 86% 29.96 in 10.0 mi Calm Calm - N/A   Clear
5:53 AM 46.9 °F 42.1 °F 83% 29.98 in 10.0 mi WNW 8.1 mph - N/A   Clear
6:53 AM 48.0 °F 41.0 °F 77% 30.00 in 10.0 mi NW 4.6 mph - N/A   Clear
7:53 AM 50.0 °F 41.0 °F 71% 30.02 in 10.0 mi Calm Calm - N/A   Clear
8:53 AM 55.0 °F 39.9 °F 57% 30.03 in 10.0 mi North 6.9 mph - N/A   Clear
9:53 AM 57.0 °F 39.9 °F 53% 30.03 in 10.0 mi North 11.5 mph 18.4 mph N/A   Clear
10:53 AM 60.1 °F 41.0 °F 49% 30.01 in 10.0 mi NW 9.2 mph 16.1 mph N/A   Clear
11:53 AM 62.1 °F 41.0 °F 46% 30.01 in 10.0 mi NW 10.4 mph 17.3 mph N/A   Clear
12:53 PM 63.0 °F 39.9 °F 43% 30.00 in 10.0 mi North 10.4 mph 18.4 mph N/A   Clear
1:53 PM 64.9 °F 41.0 °F 42% 29.99 in 10.0 mi NW 9.2 mph - N/A   Partly Cloudy
2:53 PM 64.9 °F 42.1 °F 43% 29.97 in 10.0 mi NNW 10.4 mph - N/A   Partly Cloudy
3:53 PM 64.9 °F 42.1 °F 43% 29.97 in 10.0 mi North 8.1 mph - N/A   Mostly Cloudy
4:53 PM 64.9 °F 42.1 °F 43% 29.98 in 10.0 mi NNW 8.1 mph 18.4 mph N/A   Clear
5:53 PM 64.0 °F 44.1 °F 48% 29.99 in 10.0 mi Variable 4.6 mph - N/A   Clear
6:53 PM 59.0 °F 43.0 °F 55% 30.01 in 10.0 mi North 3.5 mph - N/A   Clear
7:53 PM 54.0 °F 45.0 °F 72% 30.02 in 10.0 mi NNW 4.6 mph - N/A   Clear
8:53 PM 54.0 °F 42.1 °F 64% 30.04 in 10.0 mi NNW 3.5 mph - N/A   Clear
9:53 PM 51.1 °F 42.1 °F 71% 30.05 in 10.0 mi NNW 3.5 mph - N/A   Clear
10:53 PM 46.9 °F 42.1 °F 83% 30.05 in 10.0 mi Calm Calm - N/A   Clear
11:53 PM 44.1 °F 42.1 °F 93% 30.05 in 10.0 mi Calm Calm - N/A   Clear